Year,Month,Day,Hour,Minute,Value (Times are PST for temperature in C)
2015,07,28,00,00,14.40
2015,07,28,00,01,14.40
2015,07,28,00,02,14.40
2015,07,28,00,03,14.40
2015,07,28,00,04,14.40
2015,07,28,00,05,14.40
2015,07,28,00,06,14.30
2015,07,28,00,07,14.30
2015,07,28,00,08,14.30
2015,07,28,00,09,14.30
2015,07,28,00,10,14.30
2015,07,28,00,11,14.30
2015,07,28,00,12,14.30
2015,07,28,00,13,14.30
2015,07,28,00,14,14.30
2015,07,28,00,15,14.30
2015,07,28,00,16,14.30
2015,07,28,00,17,14.30
2015,07,28,00,18,14.30
2015,07,28,00,19,14.30
2015,07,28,00,20,14.30
2015,07,28,00,21,14.40
2015,07,28,00,22,14.40
2015,07,28,00,23,14.40
2015,07,28,00,24,14.40
2015,07,28,00,25,14.30
2015,07,28,00,26,14.40
2015,07,28,00,27,14.30
2015,07,28,00,28,14.30
2015,07,28,00,29,14.30
2015,07,28,00,30,14.30
2015,07,28,00,31,14.30
2015,07,28,00,32,14.30
2015,07,28,00,33,14.30
2015,07,28,00,34,14.30
2015,07,28,00,35,14.30
2015,07,28,00,36,14.30
2015,07,28,00,37,14.30
2015,07,28,00,38,14.30
2015,07,28,00,39,14.30
2015,07,28,00,40,14.30
2015,07,28,00,41,14.30
2015,07,28,00,42,14.30
2015,07,28,00,43,14.30
2015,07,28,00,44,14.30
2015,07,28,00,45,14.30
2015,07,28,00,46,14.30
2015,07,28,00,47,14.20
2015,07,28,00,48,14.20
2015,07,28,00,49,14.20
2015,07,28,00,50,14.20
2015,07,28,00,51,14.20
2015,07,28,00,52,14.20
2015,07,28,00,53,14.20
2015,07,28,00,54,14.20
2015,07,28,00,55,14.10
2015,07,28,00,56,14.10
2015,07,28,00,57,14.10
2015,07,28,00,58,14.10
2015,07,28,00,59,14.10
2015,07,28,01,00,14.10
2015,07,28,01,01,14.10
2015,07,28,01,02,14.10
2015,07,28,01,03,14.10
2015,07,28,01,04,14.10
2015,07,28,01,05,14.10
2015,07,28,01,06,14.10
2015,07,28,01,07,14.10
2015,07,28,01,08,14.10
2015,07,28,01,09,14.10
2015,07,28,01,10,14.10
2015,07,28,01,11,14.10
2015,07,28,01,12,14.00
2015,07,28,01,13,14.00
2015,07,28,01,14,14.00
2015,07,28,01,15,14.00
2015,07,28,01,16,14.00
2015,07,28,01,17,14.00
2015,07,28,01,18,14.00
2015,07,28,01,19,14.00
2015,07,28,01,20,14.00
2015,07,28,01,21,14.00
2015,07,28,01,22,14.00
2015,07,28,01,23,14.00
2015,07,28,01,24,14.00
2015,07,28,01,25,14.00
2015,07,28,01,26,14.00
2015,07,28,01,27,14.00
2015,07,28,01,28,14.00
2015,07,28,01,29,14.00
2015,07,28,01,30,14.00
2015,07,28,01,31,14.00
2015,07,28,01,32,14.00
2015,07,28,01,33,14.00
2015,07,28,01,34,14.00
2015,07,28,01,35,14.00
2015,07,28,01,36,14.00
2015,07,28,01,37,14.00
2015,07,28,01,38,14.00
2015,07,28,01,39,14.00
2015,07,28,01,40,14.00
2015,07,28,01,41,13.90
2015,07,28,01,42,13.90
2015,07,28,01,43,13.90
2015,07,28,01,44,13.90
2015,07,28,01,45,13.90
2015,07,28,01,46,13.90
2015,07,28,01,47,13.90
2015,07,28,01,48,13.90
2015,07,28,01,49,13.80
2015,07,28,01,50,13.80
2015,07,28,01,51,13.80
2015,07,28,01,52,13.80
2015,07,28,01,53,13.80
2015,07,28,01,54,13.80
2015,07,28,01,55,13.80
2015,07,28,01,56,13.80
2015,07,28,01,57,13.80
2015,07,28,01,58,13.80
2015,07,28,01,59,13.80
2015,07,28,02,00,13.70
2015,07,28,02,01,13.70
2015,07,28,02,02,13.70
2015,07,28,02,03,13.70
2015,07,28,02,04,13.70
2015,07,28,02,05,13.70
2015,07,28,02,06,13.70
2015,07,28,02,07,13.70
2015,07,28,02,08,13.70
2015,07,28,02,09,13.70
2015,07,28,02,10,13.70
2015,07,28,02,11,13.60
2015,07,28,02,12,13.70
2015,07,28,02,13,13.60
2015,07,28,02,14,13.60
2015,07,28,02,15,13.60
2015,07,28,02,16,13.60
2015,07,28,02,17,13.60
2015,07,28,02,18,13.60
2015,07,28,02,19,13.60
2015,07,28,02,20,13.60
2015,07,28,02,21,13.50
2015,07,28,02,22,13.50
2015,07,28,02,23,13.50
2015,07,28,02,24,13.50
2015,07,28,02,25,13.50
2015,07,28,02,26,13.40
2015,07,28,02,27,13.40
2015,07,28,02,28,13.40
2015,07,28,02,29,13.40
2015,07,28,02,30,13.40
2015,07,28,02,31,13.40
2015,07,28,02,32,13.40
2015,07,28,02,33,13.40
2015,07,28,02,34,13.40
2015,07,28,02,35,13.40
2015,07,28,02,36,13.40
2015,07,28,02,37,13.40
2015,07,28,02,38,13.50
2015,07,28,02,39,13.50
2015,07,28,02,40,13.50
2015,07,28,02,41,13.50
2015,07,28,02,42,13.50
2015,07,28,02,43,13.50
2015,07,28,02,44,13.50
2015,07,28,02,45,13.50
2015,07,28,02,46,13.50
2015,07,28,02,47,13.50
2015,07,28,02,48,13.50
2015,07,28,02,49,13.50
2015,07,28,02,50,13.50
2015,07,28,02,51,13.50
2015,07,28,02,52,13.50
2015,07,28,02,53,13.50
2015,07,28,02,54,13.40
2015,07,28,02,55,13.40
2015,07,28,02,56,13.40
2015,07,28,02,57,13.40
2015,07,28,02,58,13.40
2015,07,28,02,59,13.40
2015,07,28,03,00,13.40
2015,07,28,03,01,13.40
2015,07,28,03,02,13.40
2015,07,28,03,03,13.30
2015,07,28,03,04,13.30
2015,07,28,03,05,13.30
2015,07,28,03,06,13.30
2015,07,28,03,07,13.30
2015,07,28,03,08,13.30
2015,07,28,03,09,13.30
2015,07,28,03,10,13.30
2015,07,28,03,11,13.30
2015,07,28,03,12,13.30
2015,07,28,03,13,13.30
2015,07,28,03,14,13.30
2015,07,28,03,15,13.30
2015,07,28,03,16,13.30
2015,07,28,03,17,13.30
2015,07,28,03,18,13.30
2015,07,28,03,19,13.30
2015,07,28,03,20,13.30
2015,07,28,03,21,13.30
2015,07,28,03,22,13.30
2015,07,28,03,23,13.30
2015,07,28,03,24,13.20
2015,07,28,03,25,13.20
2015,07,28,03,26,13.20
2015,07,28,03,27,13.20
2015,07,28,03,28,13.20
2015,07,28,03,29,13.20
2015,07,28,03,30,13.20
2015,07,28,03,31,13.20
2015,07,28,03,32,13.20
2015,07,28,03,33,13.20
2015,07,28,03,34,13.20
2015,07,28,03,35,13.20
2015,07,28,03,36,13.20
2015,07,28,03,37,13.20
2015,07,28,03,38,13.20
2015,07,28,03,39,13.10
2015,07,28,03,40,13.10
2015,07,28,03,41,13.10
2015,07,28,03,42,13.10
2015,07,28,03,43,13.10
2015,07,28,03,44,13.10
2015,07,28,03,45,13.10
2015,07,28,03,46,13.10
2015,07,28,03,47,13.00
2015,07,28,03,48,13.00
2015,07,28,03,49,13.00
2015,07,28,03,50,13.00
2015,07,28,03,51,13.00
2015,07,28,03,52,12.90
2015,07,28,03,53,12.90
2015,07,28,03,54,12.90
2015,07,28,03,55,12.90
2015,07,28,03,56,12.90
2015,07,28,03,57,12.90
2015,07,28,03,58,12.80
2015,07,28,03,59,12.80
2015,07,28,04,00,12.80
2015,07,28,04,01,12.80
2015,07,28,04,02,12.80
2015,07,28,04,03,12.80
2015,07,28,04,04,12.80
2015,07,28,04,05,12.80
2015,07,28,04,06,12.80
2015,07,28,04,07,12.70
2015,07,28,04,08,12.70
2015,07,28,04,09,12.70
2015,07,28,04,10,12.70
2015,07,28,04,11,12.70
2015,07,28,04,12,12.70
2015,07,28,04,13,12.70
2015,07,28,04,14,12.70
2015,07,28,04,15,12.70
2015,07,28,04,16,12.70
2015,07,28,04,17,12.70
2015,07,28,04,18,12.60
2015,07,28,04,19,12.60
2015,07,28,04,20,12.60
2015,07,28,04,21,12.60
2015,07,28,04,22,12.60
2015,07,28,04,23,12.60
2015,07,28,04,24,12.60
2015,07,28,04,25,12.60
2015,07,28,04,26,12.60
2015,07,28,04,27,12.60
2015,07,28,04,28,12.60
2015,07,28,04,29,12.60
2015,07,28,04,30,12.60
2015,07,28,04,31,12.50
2015,07,28,04,32,12.50
2015,07,28,04,33,12.50
2015,07,28,04,34,12.50
2015,07,28,04,35,12.50
2015,07,28,04,36,12.50
2015,07,28,04,37,12.50
2015,07,28,04,38,12.50
2015,07,28,04,39,12.40
2015,07,28,04,40,12.50
2015,07,28,04,41,12.40
2015,07,28,04,42,12.40
2015,07,28,04,43,12.40
2015,07,28,04,44,12.40
2015,07,28,04,45,12.40
2015,07,28,04,46,12.40
2015,07,28,04,47,12.40
2015,07,28,04,48,12.40
2015,07,28,04,49,12.40
2015,07,28,04,50,12.40
2015,07,28,04,51,12.40
2015,07,28,04,52,12.30
2015,07,28,04,53,12.30
2015,07,28,04,54,12.30
2015,07,28,04,55,12.30
2015,07,28,04,56,12.30
2015,07,28,04,57,12.30
2015,07,28,04,58,12.30
2015,07,28,04,59,12.30
2015,07,28,05,00,12.30
2015,07,28,05,01,12.30
2015,07,28,05,02,12.20
2015,07,28,05,03,12.20
2015,07,28,05,04,12.20
2015,07,28,05,05,12.20
2015,07,28,05,06,12.20
2015,07,28,05,07,12.20
2015,07,28,05,08,12.20
2015,07,28,05,09,12.20
2015,07,28,05,10,12.20
2015,07,28,05,11,12.20
2015,07,28,05,12,12.20
2015,07,28,05,13,12.20
2015,07,28,05,14,12.20
2015,07,28,05,15,12.10
2015,07,28,05,16,12.10
2015,07,28,05,17,12.10
2015,07,28,05,18,12.10
2015,07,28,05,19,12.10
2015,07,28,05,20,12.10
2015,07,28,05,21,12.10
2015,07,28,05,22,12.10
2015,07,28,05,23,12.10
2015,07,28,05,24,12.10
2015,07,28,05,25,12.10
2015,07,28,05,26,12.10
2015,07,28,05,27,12.10
2015,07,28,05,28,12.10
2015,07,28,05,29,12.10
2015,07,28,05,30,12.10
2015,07,28,05,31,12.10
2015,07,28,05,32,12.10
2015,07,28,05,33,12.10
2015,07,28,05,34,12.10
2015,07,28,05,35,12.10
2015,07,28,05,36,12.10
2015,07,28,05,37,12.10
2015,07,28,05,38,12.10
2015,07,28,05,39,12.10
2015,07,28,05,40,12.00
2015,07,28,05,41,12.00
2015,07,28,05,42,12.00
2015,07,28,05,43,12.00
2015,07,28,05,44,12.00
2015,07,28,05,45,12.00
2015,07,28,05,46,12.00
2015,07,28,05,47,12.00
2015,07,28,05,48,12.00
2015,07,28,05,49,12.00
2015,07,28,05,50,12.00
2015,07,28,05,51,12.00
2015,07,28,05,52,12.00
2015,07,28,05,53,12.00
2015,07,28,05,54,12.00
2015,07,28,05,55,12.00
2015,07,28,05,56,12.00
2015,07,28,05,57,11.90
2015,07,28,05,58,11.90
2015,07,28,05,59,11.90
2015,07,28,06,00,11.90
2015,07,28,06,01,11.90
2015,07,28,06,02,11.90
2015,07,28,06,03,11.90
2015,07,28,06,04,12.00
2015,07,28,06,05,12.00
2015,07,28,06,06,12.00
2015,07,28,06,07,12.00
2015,07,28,06,08,12.00
2015,07,28,06,09,12.00
2015,07,28,06,10,12.00
2015,07,28,06,11,12.00
2015,07,28,06,12,12.00
2015,07,28,06,13,12.00
2015,07,28,06,14,12.00
2015,07,28,06,15,12.00
2015,07,28,06,16,12.00
2015,07,28,06,17,12.00
2015,07,28,06,18,12.00
2015,07,28,06,19,12.00
2015,07,28,06,20,12.00
2015,07,28,06,21,11.90
2015,07,28,06,22,11.90
2015,07,28,06,23,11.90
2015,07,28,06,24,11.90
2015,07,28,06,25,11.90
2015,07,28,06,26,11.90
2015,07,28,06,27,11.90
2015,07,28,06,28,11.90
2015,07,28,06,29,11.90
2015,07,28,06,30,11.90
2015,07,28,06,31,11.90
2015,07,28,06,32,11.90
2015,07,28,06,33,11.90
2015,07,28,06,34,11.90
2015,07,28,06,35,11.90
2015,07,28,06,36,11.90
2015,07,28,06,37,11.90
2015,07,28,06,38,11.90
2015,07,28,06,39,11.90
2015,07,28,06,40,11.90
2015,07,28,06,41,11.90
2015,07,28,06,42,11.90
2015,07,28,06,43,11.90
2015,07,28,06,44,12.00
2015,07,28,06,45,12.00
2015,07,28,06,46,12.00
2015,07,28,06,47,12.00
2015,07,28,06,48,12.00
2015,07,28,06,49,12.10
2015,07,28,06,50,12.10
2015,07,28,06,51,12.10
2015,07,28,06,52,12.10
2015,07,28,06,53,12.10
2015,07,28,06,54,12.10
2015,07,28,06,55,12.10
2015,07,28,06,56,12.10
2015,07,28,06,57,12.10
2015,07,28,06,58,12.20
2015,07,28,06,59,12.20
2015,07,28,07,00,12.30
2015,07,28,07,01,12.30
2015,07,28,07,02,12.30
2015,07,28,07,03,12.30
2015,07,28,07,04,12.40
2015,07,28,07,05,12.40
2015,07,28,07,06,12.40
2015,07,28,07,07,12.40
2015,07,28,07,08,12.40
2015,07,28,07,09,12.50
2015,07,28,07,10,12.50
2015,07,28,07,11,12.50
2015,07,28,07,12,12.60
2015,07,28,07,13,12.60
2015,07,28,07,14,12.60
2015,07,28,07,15,12.60
2015,07,28,07,16,12.60
2015,07,28,07,17,12.70
2015,07,28,07,18,12.70
2015,07,28,07,19,12.70
2015,07,28,07,20,12.70
2015,07,28,07,21,12.70
2015,07,28,07,22,12.80
2015,07,28,07,23,12.80
2015,07,28,07,24,12.80
2015,07,28,07,25,12.80
2015,07,28,07,26,12.80
2015,07,28,07,27,12.80
2015,07,28,07,28,12.90
2015,07,28,07,29,12.90
2015,07,28,07,30,12.90
2015,07,28,07,31,12.90
2015,07,28,07,32,13.00
2015,07,28,07,33,13.00
2015,07,28,07,34,13.00
2015,07,28,07,35,13.00
2015,07,28,07,36,13.10
2015,07,28,07,37,13.10
2015,07,28,07,38,13.10
2015,07,28,07,39,13.20
2015,07,28,07,40,13.20
2015,07,28,07,41,13.20
2015,07,28,07,42,13.30
2015,07,28,07,43,13.30
2015,07,28,07,44,13.40
2015,07,28,07,45,13.40
2015,07,28,07,46,13.40
2015,07,28,07,47,13.50
2015,07,28,07,48,13.50
2015,07,28,07,49,13.60
2015,07,28,07,50,13.60
2015,07,28,07,51,13.60
2015,07,28,07,52,13.70
2015,07,28,07,53,13.70
2015,07,28,07,54,13.80
2015,07,28,07,55,13.80
2015,07,28,07,56,13.80
2015,07,28,07,57,13.90
2015,07,28,07,58,13.90
2015,07,28,07,59,13.90
2015,07,28,08,00,14.00
2015,07,28,08,01,14.00
2015,07,28,08,02,14.10
2015,07,28,08,03,14.10
2015,07,28,08,04,14.10
2015,07,28,08,05,14.20
2015,07,28,08,06,14.20
2015,07,28,08,07,14.30
2015,07,28,08,08,14.30
2015,07,28,08,09,14.30
2015,07,28,08,10,14.40
2015,07,28,08,11,14.40
2015,07,28,08,12,14.50
2015,07,28,08,13,14.60
2015,07,28,08,14,14.60
2015,07,28,08,15,14.60
2015,07,28,08,16,14.70
2015,07,28,08,17,14.70
2015,07,28,08,18,14.80
2015,07,28,08,19,14.80
2015,07,28,08,20,14.80
2015,07,28,08,21,14.90
2015,07,28,08,22,14.90
2015,07,28,08,23,15.00
2015,07,28,08,24,15.00
2015,07,28,08,25,15.10
2015,07,28,08,26,15.10
2015,07,28,08,27,15.20
2015,07,28,08,28,15.20
2015,07,28,08,29,15.30
2015,07,28,08,30,15.30
2015,07,28,08,31,15.30
2015,07,28,08,32,15.40
2015,07,28,08,33,15.40
2015,07,28,08,34,15.50
2015,07,28,08,35,15.50
2015,07,28,08,36,15.60
2015,07,28,08,37,15.60
2015,07,28,08,38,15.70
2015,07,28,08,39,15.70
2015,07,28,08,40,15.80
2015,07,28,08,41,15.90
2015,07,28,08,42,16.00
2015,07,28,08,43,16.10
2015,07,28,08,44,16.20
2015,07,28,08,45,16.30
2015,07,28,08,46,16.40
2015,07,28,08,47,16.50
2015,07,28,08,48,16.60
2015,07,28,08,49,16.60
2015,07,28,08,50,16.70
2015,07,28,08,51,16.80
2015,07,28,08,52,16.90
2015,07,28,08,53,17.00
2015,07,28,08,54,17.10
2015,07,28,08,55,17.20
2015,07,28,08,56,17.30
2015,07,28,08,57,17.40
2015,07,28,08,58,17.50
2015,07,28,08,59,17.70
2015,07,28,09,00,17.80
2015,07,28,09,01,18.00
2015,07,28,09,02,18.10
2015,07,28,09,03,18.30
2015,07,28,09,04,18.40
2015,07,28,09,05,18.50
2015,07,28,09,06,18.50
2015,07,28,09,07,18.60
2015,07,28,09,08,18.70
2015,07,28,09,09,18.80
2015,07,28,09,10,18.80
2015,07,28,09,11,18.90
2015,07,28,09,12,18.90
2015,07,28,09,13,19.00
2015,07,28,09,14,19.00
2015,07,28,09,15,19.10
2015,07,28,09,16,19.10
2015,07,28,09,17,19.20
2015,07,28,09,18,19.30
2015,07,28,09,19,19.30
2015,07,28,09,20,19.40
2015,07,28,09,21,19.50
2015,07,28,09,22,19.60
2015,07,28,09,23,19.60
2015,07,28,09,24,19.60
2015,07,28,09,25,19.60
2015,07,28,09,26,19.60
2015,07,28,09,27,19.60
2015,07,28,09,28,19.70
2015,07,28,09,29,19.70
2015,07,28,09,30,19.70
2015,07,28,09,31,19.70
2015,07,28,09,32,19.70
2015,07,28,09,33,19.70
2015,07,28,09,34,19.70
2015,07,28,09,35,19.70
2015,07,28,09,36,19.80
2015,07,28,09,37,19.80
2015,07,28,09,38,19.90
2015,07,28,09,39,19.90
2015,07,28,09,40,19.90
2015,07,28,09,41,20.00
2015,07,28,09,42,20.00
2015,07,28,09,43,20.10
2015,07,28,09,44,20.10
2015,07,28,09,45,20.20
2015,07,28,09,46,20.20
2015,07,28,09,47,20.20
2015,07,28,09,48,20.20
2015,07,28,09,49,20.20
2015,07,28,09,50,20.20
2015,07,28,09,51,20.20
2015,07,28,09,52,20.20
2015,07,28,09,53,20.20
2015,07,28,09,54,20.20
2015,07,28,09,55,20.20
2015,07,28,09,56,20.20
2015,07,28,09,57,20.20
2015,07,28,09,58,20.10
2015,07,28,09,59,20.10
2015,07,28,10,00,20.10
2015,07,28,10,01,20.10
2015,07,28,10,02,20.10
2015,07,28,10,03,20.10
2015,07,28,10,04,20.10
2015,07,28,10,05,20.20
2015,07,28,10,06,20.20
2015,07,28,10,07,20.20
2015,07,28,10,08,20.20
2015,07,28,10,09,20.30
2015,07,28,10,10,20.40
2015,07,28,10,11,20.40
2015,07,28,10,12,20.50
2015,07,28,10,13,20.60
2015,07,28,10,14,20.60
2015,07,28,10,15,20.60
2015,07,28,10,16,20.60
2015,07,28,10,17,20.70
2015,07,28,10,18,20.80
2015,07,28,10,19,20.80
2015,07,28,10,20,20.90
2015,07,28,10,21,20.90
2015,07,28,10,22,21.00
2015,07,28,10,23,20.90
2015,07,28,10,24,20.90
2015,07,28,10,25,20.90
2015,07,28,10,26,21.00
2015,07,28,10,27,21.10
2015,07,28,10,28,21.20
2015,07,28,10,29,21.30
2015,07,28,10,30,21.30
2015,07,28,10,31,21.40
2015,07,28,10,32,21.50
2015,07,28,10,33,21.60
2015,07,28,10,34,21.60
2015,07,28,10,35,21.50
2015,07,28,10,36,21.50
2015,07,28,10,37,21.50
2015,07,28,10,38,21.50
2015,07,28,10,39,21.60
2015,07,28,10,40,21.60
2015,07,28,10,41,21.70
2015,07,28,10,42,21.70
2015,07,28,10,43,21.80
2015,07,28,10,44,21.90
2015,07,28,10,45,21.90
2015,07,28,10,46,22.00
2015,07,28,10,47,22.00
2015,07,28,10,48,22.00
2015,07,28,10,49,22.10
2015,07,28,10,50,22.10
2015,07,28,10,51,22.20
2015,07,28,10,52,22.30
2015,07,28,10,53,22.40
2015,07,28,10,54,22.50
2015,07,28,10,55,22.60
2015,07,28,10,56,22.60
2015,07,28,10,57,22.60
2015,07,28,10,58,22.70
2015,07,28,10,59,22.70
2015,07,28,11,00,22.80
2015,07,28,11,01,22.80
2015,07,28,11,02,22.80
2015,07,28,11,03,22.70
2015,07,28,11,04,22.60
2015,07,28,11,05,22.60
2015,07,28,11,06,22.60
2015,07,28,11,07,22.60
2015,07,28,11,08,22.60
2015,07,28,11,09,22.70
2015,07,28,11,10,22.70
2015,07,28,11,11,22.70
2015,07,28,11,12,22.60
2015,07,28,11,13,22.60
2015,07,28,11,14,22.60
2015,07,28,11,15,22.50
2015,07,28,11,16,22.50
2015,07,28,11,17,22.50
2015,07,28,11,18,22.50
2015,07,28,11,19,22.50
2015,07,28,11,20,22.50
2015,07,28,11,21,22.50
2015,07,28,11,22,22.40
2015,07,28,11,23,22.30
2015,07,28,11,24,22.20
2015,07,28,11,25,22.10
2015,07,28,11,26,22.10
2015,07,28,11,27,22.10
2015,07,28,11,28,22.10
2015,07,28,11,29,22.10
2015,07,28,11,30,22.10
2015,07,28,11,31,22.10
2015,07,28,11,32,22.10
2015,07,28,11,33,22.10
2015,07,28,11,34,22.20
2015,07,28,11,35,22.20
2015,07,28,11,36,22.20
2015,07,28,11,37,22.30
2015,07,28,11,38,22.30
2015,07,28,11,39,22.30
2015,07,28,11,40,22.30
2015,07,28,11,41,22.30
2015,07,28,11,42,22.30
2015,07,28,11,43,22.30
2015,07,28,11,44,22.40
2015,07,28,11,45,22.40
2015,07,28,11,46,22.50
2015,07,28,11,47,22.60
2015,07,28,11,48,22.70
2015,07,28,11,49,22.80
2015,07,28,11,50,22.90
2015,07,28,11,51,22.90
2015,07,28,11,52,22.80
2015,07,28,11,53,22.90
2015,07,28,11,54,22.90
2015,07,28,11,55,22.90
2015,07,28,11,56,22.90
2015,07,28,11,57,22.90
2015,07,28,11,58,23.00
2015,07,28,11,59,23.10
2015,07,28,12,00,23.10
2015,07,28,12,01,23.20
2015,07,28,12,02,23.20
2015,07,28,12,03,23.30
2015,07,28,12,04,23.20
2015,07,28,12,05,23.20
2015,07,28,12,06,23.10
2015,07,28,12,07,23.10
2015,07,28,12,08,23.10
2015,07,28,12,09,23.10
2015,07,28,12,10,23.00
2015,07,28,12,11,23.00
2015,07,28,12,12,23.00
2015,07,28,12,13,23.00
2015,07,28,12,14,23.10
2015,07,28,12,15,23.20
2015,07,28,12,16,23.20
2015,07,28,12,17,23.30
2015,07,28,12,18,23.30
2015,07,28,12,19,23.30
2015,07,28,12,20,23.40
2015,07,28,12,21,23.40
2015,07,28,12,22,23.40
2015,07,28,12,23,23.40
2015,07,28,12,24,23.40
2015,07,28,12,25,23.40
2015,07,28,12,26,23.50
2015,07,28,12,27,23.60
2015,07,28,12,28,23.60
2015,07,28,12,29,23.70
2015,07,28,12,30,23.70
2015,07,28,12,31,23.80
2015,07,28,12,32,23.90
2015,07,28,12,33,23.90
2015,07,28,12,34,24.00
2015,07,28,12,35,24.00
2015,07,28,12,36,24.10
2015,07,28,12,37,24.20
2015,07,28,12,38,24.20
2015,07,28,12,39,24.10
2015,07,28,12,40,24.00
2015,07,28,12,41,24.00
2015,07,28,12,42,23.90
2015,07,28,12,43,23.90
2015,07,28,12,44,24.00
2015,07,28,12,45,24.00
2015,07,28,12,46,24.10
2015,07,28,12,47,24.10
2015,07,28,12,48,24.10
2015,07,28,12,49,24.10
2015,07,28,12,50,24.10
2015,07,28,12,51,24.10
2015,07,28,12,52,24.10
2015,07,28,12,53,24.00
2015,07,28,12,54,24.00
2015,07,28,12,55,24.00
2015,07,28,12,56,23.90
2015,07,28,12,57,23.90
2015,07,28,12,58,23.90
2015,07,28,12,59,23.90
2015,07,28,13,00,23.90
2015,07,28,13,01,23.90
2015,07,28,13,02,24.00
2015,07,28,13,03,24.00
2015,07,28,13,04,24.00
2015,07,28,13,05,24.00
2015,07,28,13,06,23.90
2015,07,28,13,07,23.90
2015,07,28,13,08,23.80
2015,07,28,13,09,23.90
2015,07,28,13,10,23.90
2015,07,28,13,11,23.90
2015,07,28,13,12,24.00
2015,07,28,13,13,24.00
2015,07,28,13,14,24.10
2015,07,28,13,15,24.10
2015,07,28,13,16,24.10
2015,07,28,13,17,24.10
2015,07,28,13,18,24.20
2015,07,28,13,19,24.20
2015,07,28,13,20,24.30
2015,07,28,13,21,24.30
2015,07,28,13,22,24.30
2015,07,28,13,23,24.30
2015,07,28,13,24,24.20
2015,07,28,13,25,24.10
2015,07,28,13,26,24.10
2015,07,28,13,27,24.00
2015,07,28,13,28,24.00
2015,07,28,13,29,24.00
2015,07,28,13,30,24.10
2015,07,28,13,31,24.10
2015,07,28,13,32,24.20
2015,07,28,13,33,24.30
2015,07,28,13,34,24.40
2015,07,28,13,35,24.40
2015,07,28,13,36,24.40
2015,07,28,13,37,24.30
2015,07,28,13,38,24.30
2015,07,28,13,39,24.20
2015,07,28,13,40,24.20
2015,07,28,13,41,24.20
2015,07,28,13,42,24.30
2015,07,28,13,43,24.30
2015,07,28,13,44,24.40
2015,07,28,13,45,24.40
2015,07,28,13,46,24.50
2015,07,28,13,47,24.60
2015,07,28,13,48,24.60
2015,07,28,13,49,24.70
2015,07,28,13,50,24.60
2015,07,28,13,51,24.60
2015,07,28,13,52,24.60
2015,07,28,13,53,24.60
2015,07,28,13,54,24.60
2015,07,28,13,55,24.50
2015,07,28,13,56,24.50
2015,07,28,13,57,24.40
2015,07,28,13,58,24.40
2015,07,28,13,59,24.40
2015,07,28,14,00,24.50
2015,07,28,14,01,24.50
2015,07,28,14,02,24.50
2015,07,28,14,03,24.60
2015,07,28,14,04,24.60
2015,07,28,14,05,24.70
2015,07,28,14,06,24.70
2015,07,28,14,07,24.70
2015,07,28,14,08,24.60
2015,07,28,14,09,24.50
2015,07,28,14,10,24.40
2015,07,28,14,11,24.40
2015,07,28,14,12,24.30
2015,07,28,14,13,24.20
2015,07,28,14,14,24.20
2015,07,28,14,15,24.20
2015,07,28,14,16,24.20
2015,07,28,14,17,24.30
2015,07,28,14,18,24.40
2015,07,28,14,19,24.40
2015,07,28,14,20,24.40
2015,07,28,14,21,24.50
2015,07,28,14,22,24.60
2015,07,28,14,23,24.60
2015,07,28,14,24,24.70
2015,07,28,14,25,24.70
2015,07,28,14,26,24.80
2015,07,28,14,27,24.80
2015,07,28,14,28,24.90
2015,07,28,14,29,24.90
2015,07,28,14,30,24.90
2015,07,28,14,31,24.80
2015,07,28,14,32,24.90
2015,07,28,14,33,24.90
2015,07,28,14,34,24.90
2015,07,28,14,35,24.90
2015,07,28,14,36,24.90
2015,07,28,14,37,24.80
2015,07,28,14,38,24.70
2015,07,28,14,39,24.70
2015,07,28,14,40,24.70
2015,07,28,14,41,24.70
2015,07,28,14,42,24.70
2015,07,28,14,43,24.70
2015,07,28,14,44,24.70
2015,07,28,14,45,24.80
2015,07,28,14,46,24.80
2015,07,28,14,47,24.90
2015,07,28,14,48,24.90
2015,07,28,14,49,25.00
2015,07,28,14,50,25.10
2015,07,28,14,51,25.10
2015,07,28,14,52,25.10
2015,07,28,14,53,25.10
2015,07,28,14,54,25.10
2015,07,28,14,55,25.00
2015,07,28,14,56,25.00
2015,07,28,14,57,25.00
2015,07,28,14,58,25.00
2015,07,28,14,59,25.00
2015,07,28,15,00,25.00
2015,07,28,15,01,25.00
2015,07,28,15,02,25.00
2015,07,28,15,03,25.00
2015,07,28,15,04,25.00
2015,07,28,15,05,25.00
2015,07,28,15,06,24.90
2015,07,28,15,07,24.90
2015,07,28,15,08,24.90
2015,07,28,15,09,25.00
2015,07,28,15,10,25.00
2015,07,28,15,11,25.00
2015,07,28,15,12,24.90
2015,07,28,15,13,24.90
2015,07,28,15,14,24.90
2015,07,28,15,15,25.00
2015,07,28,15,16,25.10
2015,07,28,15,17,25.10
2015,07,28,15,18,25.20
2015,07,28,15,19,25.20
2015,07,28,15,20,25.30
2015,07,28,15,21,25.30
2015,07,28,15,22,25.40
2015,07,28,15,23,25.40
2015,07,28,15,24,25.40
2015,07,28,15,25,25.40
2015,07,28,15,26,25.40
2015,07,28,15,27,25.40
2015,07,28,15,28,25.50
2015,07,28,15,29,25.50
2015,07,28,15,30,25.50
2015,07,28,15,31,25.50
2015,07,28,15,32,25.40
2015,07,28,15,33,25.40
2015,07,28,15,34,25.40
2015,07,28,15,35,25.40
2015,07,28,15,36,25.50
2015,07,28,15,37,25.50
2015,07,28,15,38,25.50
2015,07,28,15,39,25.40
2015,07,28,15,40,25.40
2015,07,28,15,41,25.40
2015,07,28,15,42,25.50
2015,07,28,15,43,25.60
2015,07,28,15,44,25.60
2015,07,28,15,45,25.70
2015,07,28,15,46,25.70
2015,07,28,15,47,25.60
2015,07,28,15,48,25.60
2015,07,28,15,49,25.60
2015,07,28,15,50,25.70
2015,07,28,15,51,25.60
2015,07,28,15,52,25.60
2015,07,28,15,53,25.60
2015,07,28,15,54,25.60
2015,07,28,15,55,25.60
2015,07,28,15,56,25.50
2015,07,28,15,57,25.40
2015,07,28,15,58,25.40
2015,07,28,15,59,25.40
2015,07,28,16,00,25.40
2015,07,28,16,01,25.40
2015,07,28,16,02,25.50
2015,07,28,16,03,25.50
2015,07,28,16,04,25.40
2015,07,28,16,05,25.40
2015,07,28,16,06,25.40
2015,07,28,16,07,25.40
2015,07,28,16,08,25.40
2015,07,28,16,09,25.40
2015,07,28,16,10,25.50
2015,07,28,16,11,25.50
2015,07,28,16,12,25.60
2015,07,28,16,13,25.70
2015,07,28,16,14,25.70
2015,07,28,16,15,25.70
2015,07,28,16,16,25.70
2015,07,28,16,17,25.70
2015,07,28,16,18,25.70
2015,07,28,16,19,25.70
2015,07,28,16,20,25.70
2015,07,28,16,21,25.80
2015,07,28,16,22,25.80
2015,07,28,16,23,25.90
2015,07,28,16,24,26.00
2015,07,28,16,25,26.00
2015,07,28,16,26,26.10
2015,07,28,16,27,26.10
2015,07,28,16,28,26.10
2015,07,28,16,29,26.00
2015,07,28,16,30,25.90
2015,07,28,16,31,25.80
2015,07,28,16,32,25.70
2015,07,28,16,33,25.60
2015,07,28,16,34,25.50
2015,07,28,16,35,25.50
2015,07,28,16,36,25.40
2015,07,28,16,37,25.40
2015,07,28,16,38,25.40
2015,07,28,16,39,25.40
2015,07,28,16,40,25.40
2015,07,28,16,41,25.30
2015,07,28,16,42,25.30
2015,07,28,16,43,25.20
2015,07,28,16,44,25.20
2015,07,28,16,45,25.20
2015,07,28,16,46,25.20
2015,07,28,16,47,25.20
2015,07,28,16,48,25.30
2015,07,28,16,49,25.20
2015,07,28,16,50,25.20
2015,07,28,16,51,25.20
2015,07,28,16,52,25.20
2015,07,28,16,53,25.20
2015,07,28,16,54,25.20
2015,07,28,16,55,25.20
2015,07,28,16,56,25.20
2015,07,28,16,57,25.20
2015,07,28,16,58,25.20
2015,07,28,16,59,25.20
2015,07,28,17,00,25.10
2015,07,28,17,01,25.00
2015,07,28,17,02,24.90
2015,07,28,17,03,24.90
2015,07,28,17,04,24.80
2015,07,28,17,05,24.70
2015,07,28,17,06,24.70
2015,07,28,17,07,24.60
2015,07,28,17,08,24.60
2015,07,28,17,09,24.60
2015,07,28,17,10,24.60
2015,07,28,17,11,24.70
2015,07,28,17,12,24.70
2015,07,28,17,13,24.70
2015,07,28,17,14,24.70
2015,07,28,17,15,24.70
2015,07,28,17,16,24.70
2015,07,28,17,17,24.70
2015,07,28,17,18,24.70
2015,07,28,17,19,24.70